STARLINK-2005 (47600 NORAD) Tracking and Keplerian Element Data

This shows tracking and keplerian element data for the satellite.

Feedback or suggestion? Click here.




ElementValue
Catalog47600
NameSTARLINK-2005
Epoch Orbit1175
Epoch Day106.25002315
Epoch Year2021
RAAN136.3242
Inclination53.0516
Eccentricity0.0003619
Argument of Perigee10.5943
Mean Anonmoly161.566
Mean Motion15.62760088
Decay Rate-6.009E-05
L11 47600U 21009BE 21106.25002315 -.00006009 00000-0 -59771-4 0 9997
L22 47600 53.0516 136.3242 0003619 10.5943 161.5660 15.62760088 11753

Live tracking and technical data element details for STARLINK-2005 (NORAD 47600). STARLINK-2005 can be tracked NOW for your location showing map with azimuth and elevation plus other details from your city location.

Track the satellite on the map from your city or location and see movement details for azimuth, elevation, latitude, longitude, range, height, and movement on the map or in text.







IsCatalogInMostPopularTable: catalog: 47600, numindb: 21
Update: records affected: 1



GetName: 47600 STARLINK-2005

Hit Count: updated at: Fri, 16 Apr 2021 11:32:04 GMT